• In Belarus
  • List of Countries
  • For 7 days
  • Water Temperature
  • Satellite Maps
  • Weather Map
  • Weather Widgets
  • user-avatar
    Login

    Hourly Weather Barra

    Today, 10 December, Monday

    Time Temperature Precipitation Wind Pressure Humidity
    00:00 +26°C° 2.3 mm 8 mps 743 mmHg 93%
    01:00 +26°C° 2.3 mm 8 mps 743 mmHg 94%
    02:00 +26°C° 2.3 mm 7 mps 743 mmHg 94%
    03:00 +26°C° 2.3 mm 7 mps 743 mmHg 94%
    04:00 +26°C° 0 mm 6 mps 743 mmHg 94%
    05:00 +26°C° 2.2 mm 6 mps 743 mmHg 94%
    06:00 +26°C° 2.2 mm 6 mps 744 mmHg 95%
    07:00 +26°C° 2.2 mm 6 mps 744 mmHg 95%
    08:00 +26°C° 1.8 mm 6 mps 744 mmHg 95%
    09:00 +26°C° 1.8 mm 5 mps 745 mmHg 95%
    10:00 +26°C° 1.8 mm 5 mps 745 mmHg 94%
    11:00 +27°C° 1.5 mm 5 mps 745 mmHg 94%
    12:00 +27°C° 1.5 mm 5 mps 744 mmHg 93%
    13:00 +27°C° 1.5 mm 4 mps 744 mmHg 92%
    14:00 +27°C° 1.3 mm 4 mps 744 mmHg 92%
    15:00 +27°C° 1.3 mm 4 mps 744 mmHg 93%
    16:00 +27°C° 1.3 mm 4 mps 744 mmHg 93%
    17:00 +27°C° 1.6 mm 4 mps 744 mmHg 94%
    18:00 +26°C° 1.6 mm 3 mps 744 mmHg 95%
    19:00 +26°C° 1.6 mm 3 mps 744 mmHg 96%
    20:00 +26°C° 1.8 mm 3 mps 745 mmHg 96%
    21:00 +26°C° 1.8 mm 3 mps 745 mmHg 97%
    22:00 +26°C° 1.8 mm 3 mps 746 mmHg 97%
    23:00 +26°C° 2.3 mm 3 mps 746 mmHg 97%

    Tomorrow, 11 December, Tuesday

    Time Temperature Precipitation Wind Pressure Humidity
    00:00 +26°C° 2.3 mm 3 mps 745 mmHg 97%
    01:00 +26°C° 2.3 mm 3 mps 745 mmHg 97%
    02:00 +25°C° 1.6 mm 3 mps 745 mmHg 97%
    03:00 +25°C° 1.6 mm 3 mps 745 mmHg 97%
    04:00 +25°C° 1.6 mm 3 mps 745 mmHg 97%
    05:00 +26°C° 1 mm 2 mps 745 mmHg 96%
    06:00 +26°C° 1 mm 2 mps 746 mmHg 94%
    07:00 +27°C° 1 mm 2 mps 746 mmHg 93%
    08:00 +28°C° 0.8 mm 2 mps 746 mmHg 85%
    09:00 +30°C° 0.8 mm 2 mps 746 mmHg 77%
    10:00 +31°C° 0.8 mm 2 mps 747 mmHg 69%
    11:00 +32°C° 0.3 mm 2 mps 746 mmHg 66%
    12:00 +34°C° 0.3 mm 2 mps 746 mmHg 63%
    13:00 +34°C° 0.3 mm 2 mps 745 mmHg 60%
    14:00 +34°C° 0 mm 2 mps 745 mmHg 61%
    15:00 +34°C° 0 mm 2 mps 744 mmHg 63%
    16:00 +32°C° 0 mm 2 mps 744 mmHg 64%
    17:00 +31°C° 0 mm 2 mps 744 mmHg 71%
    18:00 +29°C° 0 mm 2 mps 745 mmHg 78%
    19:00 +28°C° 0 mm 2 mps 745 mmHg 85%
    20:00 +27°C° 0 mm 1 mps 746 mmHg 87%
    21:00 +27°C° 0 mm 1 mps 746 mmHg 89%
    22:00 +27°C° 0 mm 1 mps 747 mmHg 91%
    23:00 +27°C° 0.1 mm 1 mps 746 mmHg 93%

    Day after tomorrow, 12 December, Wednesday

    Time Temperature Precipitation Wind Pressure Humidity
    00:00 +26°C° 0.1 mm 1 mps 746 mmHg 94%
    01:00 +26°C° 0.1 mm 1 mps 745 mmHg 95%
    02:00 +26°C° 0.1 mm 1 mps 745 mmHg 95%
    03:00 +26°C° 0.1 mm 1 mps 745 mmHg 95%
    04:00 +26°C° 0.1 mm 1 mps 744 mmHg 95%
    05:00 +26°C° 0.1 mm 1 mps 745 mmHg 93%
    06:00 +27°C° 0.1 mm 1 mps 746 mmHg 91%
    07:00 +27°C° 0.1 mm 1 mps 746 mmHg 89%
    08:00 +29°C° 0.3 mm 1 mps 746 mmHg 81%
    09:00 +30°C° 0.3 mm 2 mps 746 mmHg 73%
    10:00 +32°C° 0.3 mm 2 mps 746 mmHg 65%
    11:00 +34°C° 0 mm 2 mps 746 mmHg 63%
    12:00 +35°C° 0 mm 2 mps 745 mmHg 60%
    13:00 +35°C° 0 mm 2 mps 744 mmHg 57%
    14:00 +35°C° 0.1 mm 2 mps 744 mmHg 60%
    15:00 +34°C° 0.1 mm 2 mps 744 mmHg 62%
    16:00 +34°C° 0.1 mm 2 mps 743 mmHg 65%
    17:00 +31°C° 0.2 mm 2 mps 744 mmHg 72%
    18:00 +30°C° 0.2 mm 2 mps 744 mmHg 79%
    19:00 +28°C° 0.2 mm 1 mps 745 mmHg 86%
    20:00 +28°C° 0.2 mm 1 mps 745 mmHg 88%
    21:00 +28°C° 0.2 mm 1 mps 746 mmHg 90%
    22:00 +25°C° 0.2 mm 0 mps 746 mmHg 92%
    23:00 +27°C° 0 mm 1 mps 746 mmHg 93%

    13 December, Thursday

    Time Temperature Precipitation Wind Pressure Humidity
    00:00 +27°C° 0 mm 1 mps 745 mmHg 94%
    01:00 +26°C° 0 mm 1 mps 744 mmHg 95%
    02:00 +26°C° 0 mm 1 mps 744 mmHg 95%
    03:00 +26°C° 0 mm 1 mps 744 mmHg 95%
    04:00 +26°C° 0 mm 1 mps 744 mmHg 94%
    05:00 +27°C° 0 mm 1 mps 744 mmHg 93%
    06:00 +25°C° 0 mm 0 mps 745 mmHg 91%
    07:00 +25°C° 0 mm 0 mps 745 mmHg 90%
    08:00 +29°C° 0 mm 1 mps 745 mmHg 83%
    09:00 +31°C° 0 mm 1 mps 745 mmHg 75%
    10:00 +32°C° 0 mm 1 mps 745 mmHg 68%
    11:00 +32°C° 0.5 mm 2 mps 745 mmHg 68%
    12:00 +34°C° 0.5 mm 2 mps 744 mmHg 67%
    13:00 +34°C° 0.5 mm 3 mps 744 mmHg 67%
    14:00 +33°C° 1.5 mm 3 mps 744 mmHg 74%
    15:00 +31°C° 1.5 mm 3 mps 743 mmHg 81%
    16:00 +30°C° 1.5 mm 2 mps 743 mmHg 88%
    17:00 +29°C° 0.7 mm 3 mps 743 mmHg 90%
    18:00 +28°C° 0.7 mm 3 mps 743 mmHg 92%
    19:00 +28°C° 0.7 mm 3 mps 744 mmHg 94%
    20:00 +27°C° 0 mm 3 mps 744 mmHg 94%
    21:00 +27°C° 0 mm 3 mps 744 mmHg 94%
    22:00 +27°C° 0 mm 2 mps 744 mmHg 93%
    23:00 +27°C° 0.1 mm 3 mps 744 mmHg 93%

    14 December, Friday

    Time Temperature Precipitation Wind Pressure Humidity
    00:00 +27°C° 0.1 mm 3 mps 743 mmHg 92%
    01:00 +27°C° 0.1 mm 3 mps 743 mmHg 91%
    02:00 +26°C° 1.2 mm 2 mps 743 mmHg 91%
    03:00 +26°C° 1.2 mm 2 mps 742 mmHg 92%
    04:00 +26°C° 1.2 mm 2 mps 742 mmHg 92%
    05:00 +27°C° 1.2 mm 1 mps 743 mmHg 90%
    06:00 +27°C° 1.2 mm 1 mps 743 mmHg 88%
    07:00 +28°C° 1.2 mm 1 mps 743 mmHg 86%
    08:00 +29°C° 0.2 mm 1 mps 743 mmHg 83%
    09:00 +29°C° 0.2 mm 2 mps 743 mmHg 80%
    10:00 +30°C° 0.2 mm 2 mps 744 mmHg 77%
    11:00 +30°C° 0.3 mm 2 mps 743 mmHg 76%
    12:00 +31°C° 0.3 mm 2 mps 743 mmHg 74%
    13:00 +31°C° 0.3 mm 3 mps 742 mmHg 73%
    14:00 +30°C° 2 mm 2 mps 742 mmHg 78%
    15:00 +29°C° 2 mm 2 mps 742 mmHg 84%
    16:00 +28°C° 2 mm 2 mps 742 mmHg 89%
    17:00 +28°C° 1 mm 2 mps 742 mmHg 90%
    18:00 +27°C° 1 mm 1 mps 743 mmHg 91%
    19:00 +27°C° 1 mm 1 mps 743 mmHg 92%
    20:00 +27°C° 0.7 mm 1 mps 743 mmHg 93%
    21:00 +26°C° 0.7 mm 1 mps 744 mmHg 93%
    22:00 +26°C° 0.7 mm 1 mps 744 mmHg 94%
    23:00 +26°C° 1.2 mm 1 mps 743 mmHg 94%

    15 December, Saturday

    Time Temperature Precipitation Wind Pressure Humidity
    00:00 +26°C° 1.2 mm 1 mps 743 mmHg 95%
    01:00 +26°C° 1.2 mm 1 mps 742 mmHg 95%
    02:00 +26°C° 0.7 mm 1 mps 742 mmHg 95%
    03:00 +25°C° 0.7 mm 1 mps 742 mmHg 96%
    04:00 +23°C° 0.7 mm 0 mps 742 mmHg 96%
    05:00 +24°C° 0.2 mm 0 mps 742 mmHg 95%
    06:00 +24°C° 0.2 mm 0 mps 743 mmHg 94%
    07:00 +24°C° 0.2 mm 0 mps 744 mmHg 93%
    08:00 +27°C° 0.2 mm 1 mps 744 mmHg 89%
    09:00 +28°C° 0.2 mm 1 mps 744 mmHg 84%
    10:00 +29°C° 0.2 mm 1 mps 744 mmHg 80%
    11:00 +28°C° 0.8 mm 2 mps 743 mmHg 84%
    12:00 +28°C° 0.8 mm 2 mps 743 mmHg 88%
    13:00 +27°C° 0.8 mm 3 mps 743 mmHg 92%
    14:00 +27°C° 2.6 mm 3 mps 742 mmHg 93%
    15:00 +27°C° 2.6 mm 4 mps 742 mmHg 95%
    16:00 +27°C° 2.6 mm 5 mps 741 mmHg 96%
    17:00 +27°C° 1.4 mm 5 mps 741 mmHg 95%
    18:00 +27°C° 1.4 mm 6 mps 741 mmHg 95%
    19:00 +27°C° 1.4 mm 6 mps 741 mmHg 95%
    20:00 +27°C° 1.3 mm 6 mps 741 mmHg 95%
    21:00 +27°C° 1.3 mm 6 mps 741 mmHg 94%
    22:00 +27°C° 1.3 mm 7 mps 741 mmHg 94%
    23:00 +27°C° 2 mm 7 mps 740 mmHg 94%
    Show more